Location: Coupvray
(48.8929°N, 2.7967°E)
Time: 10:55:32
(UTC+00:00)

Landsat 5 - Pass Details

Date: 14 July 2020
Orbit: 528 x 654 km, 98.2° (Epoch: 05 August)

Event Time Altitude Azimuth Distance (km) Brightness Sun altitude
Rises 03:07:56 0° 162° (SSE) 2,714 6.6 -7.4°
Reaches altitude 10° 03:10:04 10° 161° (SSE) 1,810 5.7 -7.2°
Maximum altitude 03:13:57 82° 75° (ENE) 549 3.4 -6.7°
Drops below altitude 10° 03:17:48 10° 348° (NNW) 1,791 6.4 -6.3°
Sets 03:19:55 0° 347° (NNW) 2,683 7.3 -6.0°
